Downstream station:
SHEF ID: HUBO2 Beaver Creek nr Hulen, OK
STATION TYPE:
PRECIP STAGE RIV-FLOW BAT-LOAD
in ft cfs volt
Ccp-Rev Ccp-Rev Ccp-Rev Ccp-Rev
(US/Central)
07/11 00:00 0.00 6.93 0 12.99
07/11 01:00 0.00 6.94 0 12.97
07/11 02:00 0.00 6.94 0 12.95
07/11 03:00 0.00 6.92 0 12.93
07/11 04:00 0.00 6.92 0 12.93
07/11 05:00 0.00 6.92 0 12.90
07/11 06:00 0.00 6.93 0 12.89
07/11 07:00 0.00 6.94 0 12.88
07/11 08:00 0.00 6.94 0 13.05
07/11 09:00 0.00 6.93 0 13.67
07/11 10:00 0.00 6.92 0 13.81
07/11 11:00 0.00 6.91 0 13.39
07/11 12:00 0.00 6.93 0 13.51
07/11 13:00 0.00 6.91 0 13.31
07/11 14:00 0.00 6.91 0 13.21
07/11 15:00 0.00 6.91 0 13.41
07/11 16:00 0.00 6.91 0 13.41
07/11 17:00 0.00 6.88 0 13.57
07/11 18:00 0.00 6.91 0 13.46
07/11 19:00 0.00 6.91 0 13.32
07/11 20:00 0.00 6.92 0 13.13
07/11 21:00 0.00 6.90 0 13.04
07/11 22:00 0.00 6.92 0 13.03
07/11 23:00 ---- ---- ---- ----